Location: Chrząstowo
(52.0654°N, 17.1290°E)
Time: 16:10:00
(UTC+01:00)

ISS - Pass Details

Date: 01 February 2019
Orbit: 403 x 411 km, 51.6° (Epoch: 20 February)

Event Time Altitude Azimuth Distance (km) Brightness Sun altitude
Rises 17:19:06 0° 259° (WSW) 2,331 2.4 -6.6°
Reaches altitude 10° 17:21:10 10° 258° (WSW) 1,473 0.8 -6.9°
Maximum altitude 17:24:28 78° 172° (S) 423 -3.7 -7.3°
Drops below altitude 10° 17:27:48 10° 86° (E) 1,480 -1.6 -7.8°
Enters shadow 17:27:48 10° 86° (E) 1,483 -1.6 -7.8°
